2023/02/21 00:00:00,84.2,-2.0
2023/02/21 00:10:00,84.1,-2.1
2023/02/21 00:20:00,84.0,-1.6
2023/02/21 00:30:00,83.5,-1.8
2023/02/21 00:40:00,83.5,-2.3
2023/02/21 00:50:00,83.5,-2.2
2023/02/21 01:00:00,83.5,-2.3
2023/02/21 01:10:00,83.5,-1.7
2023/02/21 01:20:00,83.5,-2.5
2023/02/21 01:30:00,83.5,-2.4
2023/02/21 01:40:00,83.6,-2.3
2023/02/21 01:50:00,84.5,-2.0
2023/02/21 02:00:00,84.6,-1.3
2023/02/21 02:10:00,84.5,-1.7
2023/02/21 02:20:00,84.5,-1.6
2023/02/21 02:30:00,84.5,-1.4
2023/02/21 02:40:00,84.5,-1.5
2023/02/21 02:50:00,84.5,-1.6
2023/02/21 03:00:00,84.5,-1.6
2023/02/21 03:10:00,84.5,-1.8
2023/02/21 03:20:00,84.5,-1.6
2023/02/21 03:30:00,84.5,-1.7
2023/02/21 03:40:00,84.4,-2.0
2023/02/21 03:50:00,84.4,-2.2
2023/02/21 04:00:00,84.4,-2.5
2023/02/21 04:10:00,84.4,-2.9
2023/02/21 04:20:00,84.3,-2.6
2023/02/21 04:30:00,84.5,-2.1
2023/02/21 04:40:00,84.9,-2.0
2023/02/21 04:50:00,85.0,-1.8
2023/02/21 05:00:00,84.9,-2.2
2023/02/21 05:10:00,84.9,-2.1
2023/02/21 05:20:00,85.0,-1.7
2023/02/21 05:30:00,85.5,-1.8
2023/02/21 05:40:00,85.4,-1.7
2023/02/21 05:50:00,86.1,-1.9
2023/02/21 06:00:00,86.8,-2.0
2023/02/21 06:10:00,87.7,-1.7
2023/02/21 06:20:00,88.9,-2.0
2023/02/21 06:30:00,89.7,-1.9
2023/02/21 06:40:00,90.6,-1.9
2023/02/21 06:50:00,91.1,-1.8
2023/02/21 07:00:00,91.2,-1.8
2023/02/21 07:10:00,91.1,-1.8
2023/02/21 07:20:00,---,-1.6
2023/02/21 07:30:00,101.5,-1.6
2023/02/21 07:40:00,101.3,-1.6
2023/02/21 07:50:00,101.2,-1.7
2023/02/21 08:00:00,101.2,-1.3
2023/02/21 08:10:00,101.4,-1.2
2023/02/21 08:20:00,101.8,-1.5
2023/02/21 08:30:00,102.3,-1.5
2023/02/21 08:40:00,102.5,-1.3
2023/02/21 08:50:00,102.4,-0.6
2023/02/21 09:00:00,102.1,-0.7
2023/02/21 09:10:00,102.4,-0.4
2023/02/21 09:20:00,102.8,-0.5
2023/02/21 09:30:00,102.8,-0.3
2023/02/21 09:40:00,102.7, 0.0
2023/02/21 09:50:00,102.5,-0.2
2023/02/21 10:00:00,102.4, 0.7
2023/02/21 10:10:00,102.3, 0.4
2023/02/21 10:20:00,102.2, 0.5
2023/02/21 10:30:00,102.1, 0.6
2023/02/21 10:40:00,102.0,-0.1
2023/02/21 10:50:00,102.1, 0.6
2023/02/21 11:00:00,102.3, 1.0
2023/02/21 11:10:00,102.1, 1.4
2023/02/21 11:20:00,102.0, 0.3
2023/02/21 11:30:00,102.1, 1.9
2023/02/21 11:40:00,102.0, 3.3
2023/02/21 11:50:00,102.0, 4.5
2023/02/21 12:00:00,101.9, 3.1
2023/02/21 12:10:00,101.9, 3.4
2023/02/21 12:20:00,101.9, 1.3
2023/02/21 12:30:00,101.9, 1.5
2023/02/21 12:40:00,101.8, 4.0
2023/02/21 12:50:00,101.5, 3.2
2023/02/21 13:00:00,101.4, 0.8
2023/02/21 13:10:00,101.4, 2.1
2023/02/21 13:20:00,101.2, 1.5
2023/02/21 13:30:00,101.1, 4.8
2023/02/21 13:40:00,101.0, 1.9
2023/02/21 13:50:00,100.9, 0.7
2023/02/21 14:00:00,100.9,-0.4
2023/02/21 14:10:00,101.0, 1.9
2023/02/21 14:20:00,100.9, 0.2
2023/02/21 14:30:00,101.2, 1.5
2023/02/21 14:40:00,101.2, 6.9
2023/02/21 14:50:00,101.0, 2.8
2023/02/21 15:00:00,101.0, 1.4
2023/02/21 15:10:00,100.9, 1.4
2023/02/21 15:20:00,100.8, 1.0
2023/02/21 15:30:00,100.8, 0.9
2023/02/21 15:40:00,100.7,-0.1
2023/02/21 15:50:00,100.5,-0.4
2023/02/21 16:00:00,100.4,-0.1
2023/02/21 16:10:00,100.4,-0.9
2023/02/21 16:20:00,100.3,-0.8
2023/02/21 16:30:00,100.4,-1.0
2023/02/21 16:40:00,100.3,-0.9
2023/02/21 16:50:00,100.8,-1.3
2023/02/21 17:00:00,100.7,-1.3
2023/02/21 17:10:00,100.7,-1.4
2023/02/21 17:20:00,101.0,-1.6
2023/02/21 17:30:00,101.0,-1.6
2023/02/21 17:40:00,101.5,-1.5
2023/02/21 17:50:00,101.9,-2.0
2023/02/21 18:00:00,101.8,-1.8
2023/02/21 18:10:00,101.7,-2.1
2023/02/21 18:20:00,101.6,-2.0
2023/02/21 18:30:00,102.3,-1.6
2023/02/21 18:40:00,102.5,-1.5
2023/02/21 18:50:00,102.6,-1.8
2023/02/21 19:00:00,102.5,-1.8
2023/02/21 19:10:00,102.3,-1.7
2023/02/21 19:20:00,102.3,-1.5
2023/02/21 19:30:00,102.2,-1.8
2023/02/21 19:40:00,102.0,-1.6
2023/02/21 19:50:00,102.2,-1.7
2023/02/21 20:00:00,102.4,-1.4
2023/02/21 20:10:00,102.8,-1.6
2023/02/21 20:20:00,103.0,-1.6
2023/02/21 20:30:00,102.9,-1.8
2023/02/21 20:40:00,102.8,-1.9
2023/02/21 20:50:00,102.7,-1.8
2023/02/21 21:00:00,102.6,-1.9
2023/02/21 21:10:00,102.5,-1.7
2023/02/21 21:20:00,102.4,-1.6
2023/02/21 21:30:00,102.3,-1.8
2023/02/21 21:40:00,102.3,-1.8
2023/02/21 21:50:00,102.3,-2.0
2023/02/21 22:00:00,102.2,-1.9
2023/02/21 22:10:00,102.1,-2.1
2023/02/21 22:20:00,102.1,-1.9
2023/02/21 22:30:00,102.0,-2.2
2023/02/21 22:40:00,102.0,-2.1
2023/02/21 22:50:00,102.0,-2.1
2023/02/21 23:00:00,101.9,-2.1
2023/02/21 23:10:00,101.9,-2.2
2023/02/21 23:20:00,101.9,-2.6
2023/02/21 23:30:00,101.8,-2.5
2023/02/21 23:40:00,101.8,-2.6
2023/02/21 23:50:00,101.8,-3.3
